Location: Unspecified
(48.2082°N, 0.0000°E)
Time: 16:53:46
(UTC+00:00)

A-11 Canister half - Pass Details

Date: 23 June 2019
Orbit: 1514 x 1686 km, 47.2° (Epoch: 18 October)

Event Time Altitude Azimuth Distance (km) Brightness Sun altitude
Rises 15:15:16 0° 285° (WNW) 4,831 12.2 44.7°
Reaches altitude 10° 15:18:27 10° 283° (WNW) 3,820 11.9 44.2°
Maximum altitude 15:27:56 64° 205° (SSW) 1,700 10.3 42.7°
Drops below altitude 10° 15:37:06 10° 127° (SE) 3,692 10.8 41.2°
Sets 15:40:08 0° 124° (SE) 4,661 11.2 40.7°
